Oxford, NC

4:57 AM EDT on September 22, 2019 (GMT -0400)
Henderson-Oxford

Weather History for KHNZ - July, 2019

Change the Weather History Date:

Sunday, July 21, 2019

  Actual Average (WUND) Record (WUND)
Temperature  
Mean Temperature 82 °F -  
Max Temperature 94 °F - - (-1)
Min Temperature 71 °F - - (-1)
Cooling Degree Days 18    
Growing Degree Days 32 (Base 50)    
Moisture  
Dew Point 69 °F    
Average Humidity 67    
Maximum Humidity 93    
Minimum Humidity 39    
Precipitation  
Precipitation 0.00 in - - ()
Sea Level Pressure  
Sea Level Pressure 29.97 in    
Wind  
Wind Speed 2 mph (WSW)    
Max Wind Speed 14 mph    
Max Gust Speed 20 mph    
Visibility 10 miles    
Events      
Averages and records for this station are not official NWS values.
T = Trace of Precipitation, MM = Missing Value Source: NWS Daily Summary

Daily Weather History Graph

Daily Weather History Graph

Search for Another Location

Airport or City:

Astronomy

Jul. 21, 2019 Rise Set
Actual Time 6:12 AM EDT 8:28 PM EDT
Civil Twilight 5:42 AM EDT 8:57 PM EDT
Nautical Twilight 5:06 AM EDT 9:33 PM EDT
Astronomical Twilight 4:27 AM EDT 10:12 PM EDT
Moon 11:29 PM EDT (7/21) 10:24 AM EDT (7/21)
Length of Visible Light 15h 15m
Length of Day
14h 16m
Waning Gibbous, 80% of the Moon is Illuminated
Jul 21
Waning Gibbous
Jul 24
Last Quarter
Jul 31
New
Aug 7
First Quarter
Aug 15
Full

Hourly Weather History & Observations

Time (EDT) Temp. Heat Index Dew Point Humidity Pressure Visibility Wind Dir Wind Speed Gust Speed Precip Events Conditions
12:35 AM 72.9 °F - 68.5 °F 86% 29.98 in 10.0 mi Calm Calm - N/A   Clear
12:55 AM 72.7 °F - 68.9 °F 88% 29.98 in 10.0 mi Calm Calm - N/A   Clear
1:15 AM 72.9 °F - 68.9 °F 87% 29.98 in 10.0 mi Calm Calm - N/A   Clear
1:35 AM 72.7 °F - 68.9 °F 88% 29.99 in 10.0 mi Calm Calm - N/A   Clear
1:55 AM 72.1 °F - 68.9 °F 89% 29.98 in 10.0 mi Calm Calm - N/A   Clear
2:15 AM 72.3 °F - 68.9 °F 89% 29.98 in 10.0 mi Calm Calm - N/A   Clear
2:35 AM 72.9 °F - 68.9 °F 87% 29.98 in 10.0 mi Calm Calm - N/A   Clear
2:55 AM 72.7 °F - 68.9 °F 88% 29.98 in 10.0 mi Calm Calm - N/A   Clear
3:15 AM 73.0 °F - 69.1 °F 87% 29.98 in 10.0 mi Calm Calm - N/A   Clear
3:35 AM 72.7 °F - 69.1 °F 88% 29.97 in 10.0 mi Calm Calm - N/A   Clear
3:55 AM 72.9 °F - 69.3 °F 88% 29.97 in 10.0 mi Calm Calm - N/A   Clear
4:15 AM 72.9 °F - 69.3 °F 88% 29.97 in 10.0 mi Calm Calm - N/A   Clear
4:35 AM 72.5 °F - 69.3 °F 90% 29.97 in 10.0 mi Calm Calm - N/A   Clear
4:55 AM 72.5 °F - 69.3 °F 90% 29.97 in 10.0 mi Calm Calm - N/A   Clear
5:15 AM 72.1 °F - 69.3 °F 91% 29.96 in 10.0 mi Calm Calm - N/A   Clear
5:35 AM 71.6 °F - 69.3 °F 92% 29.96 in 10.0 mi Calm Calm - N/A   Clear
5:55 AM 71.6 °F - 69.3 °F 92% 29.97 in 10.0 mi Calm Calm - N/A   Clear
6:15 AM 71.6 °F - 69.4 °F 93% 29.97 in 10.0 mi Calm Calm - N/A   Clear
6:35 AM 72.0 °F - 69.8 °F 93% 29.97 in 10.0 mi Calm Calm - N/A   Clear
6:55 AM 72.7 °F - 69.8 °F 91% 29.97 in 10.0 mi Calm Calm - N/A   Clear
7:15 AM 73.4 °F - 70.0 °F 89% 29.98 in 10.0 mi Calm Calm - N/A   Clear
7:35 AM 75.2 °F - 70.3 °F 85% 29.98 in 10.0 mi Calm Calm - N/A   Clear
7:55 AM 76.6 °F - 70.7 °F 82% 29.98 in 10.0 mi Calm Calm - N/A   Clear
8:15 AM 77.9 °F - 70.9 °F 79% 29.98 in 10.0 mi SW 9.2 mph - N/A   Clear
8:35 AM 79.0 °F - 71.1 °F 77% 29.98 in 10.0 mi SW 6.9 mph - N/A   Clear
8:55 AM 80.4 °F 84.1 °F 71.2 °F 73% 29.99 in 10.0 mi Calm Calm - N/A   Clear
9:15 AM 82.2 °F 86.9 °F 71.4 °F 70% 29.99 in 10.0 mi SW 11.5 mph - N/A   Clear
9:35 AM 83.7 °F 88.9 °F 71.8 °F 67% 29.99 in 10.0 mi SW 9.2 mph 17.3 mph N/A   Clear
9:55 AM 84.6 °F 90.0 °F 71.4 °F 65% 29.99 in 10.0 mi WSW 9.2 mph - N/A   Clear
10:15 AM 86.4 °F 92.2 °F 71.4 °F 61% 29.99 in 10.0 mi WSW 10.4 mph - N/A   Clear
10:35 AM 86.7 °F 92.1 °F 70.7 °F 59% 29.98 in 10.0 mi SW 8.1 mph - N/A   Clear
11:15 AM 89.1 °F 94.6 °F 70.3 °F 54% 29.99 in 10.0 mi Calm Calm - N/A   Clear
11:35 AM 90.0 °F 95.9 °F 70.7 °F 53% 29.99 in 10.0 mi West 8.1 mph - N/A   Clear
11:55 AM 89.8 °F 95.1 °F 69.8 °F 52% 29.99 in 10.0 mi WSW 11.5 mph 17.3 mph N/A   Clear
12:15 PM 89.6 °F 94.3 °F 69.4 °F 51% 29.99 in 10.0 mi Calm Calm - N/A   Clear
12:35 PM 91.2 °F 95.5 °F 68.2 °F 47% 29.99 in 10.0 mi Calm Calm - N/A   Clear
12:55 PM 91.2 °F 95.0 °F 67.6 °F 46% 29.99 in 10.0 mi Calm Calm - N/A   Scattered Clouds
1:15 PM 92.7 °F 97.2 °F 68.2 °F 45% 29.98 in 10.0 mi Calm Calm - N/A   Scattered Clouds
1:35 PM 93.2 °F 96.2 °F 66.2 °F 41% 29.97 in 10.0 mi SW 11.5 mph 19.6 mph N/A   Scattered Clouds
1:55 PM 93.7 °F 96.2 °F 65.3 °F 39% 29.97 in 10.0 mi WSW 6.9 mph 17.3 mph N/A   Clear
2:15 PM 92.8 °F 95.6 °F 66.0 °F 41% 29.96 in 10.0 mi SW 10.4 mph 19.6 mph N/A   Clear
2:35 PM 93.7 °F 97.7 °F 67.3 °F 42% 29.96 in 10.0 mi WSW 6.9 mph 18.4 mph N/A   Clear
2:55 PM 93.7 °F 98.2 °F 67.8 °F 43% 29.96 in 10.0 mi West 3.5 mph 18.4 mph N/A   Clear
3:15 PM 94.5 °F 98.0 °F 66.4 °F 40% 29.95 in 10.0 mi WSW 8.1 mph - N/A   Clear
3:35 PM 93.6 °F 97.4 °F 67.1 °F 42% 29.94 in 10.0 mi Calm Calm - N/A   Scattered Clouds
3:55 PM 94.6 °F 98.3 °F 67.1 °F 40% 29.95 in 10.0 mi SW 13.8 mph 17.3 mph N/A   Scattered Clouds
4:15 PM 94.8 °F 98.1 °F 66.0 °F 39% 29.94 in 10.0 mi SSW 12.7 mph 16.1 mph N/A   Scattered Clouds
4:35 PM 94.6 °F 98.3 °F 67.1 °F 40% 29.94 in 10.0 mi WSW 6.9 mph - N/A   Clear
4:55 PM 92.5 °F 95.0 °F 65.8 °F 41% 29.94 in 10.0 mi SW 9.2 mph 16.1 mph N/A   Scattered Clouds
5:15 PM 93.9 °F 97.5 °F 67.1 °F 41% 29.94 in 10.0 mi SW 10.4 mph - N/A   Scattered Clouds
5:35 PM 93.2 °F 96.7 °F 66.7 °F 42% 29.94 in 10.0 mi SSW 9.2 mph - N/A   Scattered Clouds
5:55 PM 93.7 °F 96.7 °F 66.4 °F 40% 29.94 in 10.0 mi WSW 8.1 mph - N/A   Scattered Clouds
6:15 PM 93.2 °F 96.2 °F 66.2 °F 41% 29.94 in 10.0 mi SW 10.4 mph - N/A   Scattered Clouds
6:35 PM 91.2 °F 93.7 °F 66.0 °F 43% 29.93 in 10.0 mi SW 9.2 mph - N/A   Scattered Clouds
6:55 PM 90.5 °F 93.8 °F 66.9 °F 46% 29.93 in 10.0 mi SW 5.8 mph - N/A   Clear
7:15 PM 90.5 °F 94.2 °F 68.0 °F 47% 29.93 in 10.0 mi West 3.5 mph - N/A   Clear
7:35 PM 87.6 °F 91.5 °F 68.7 °F 53% 29.93 in 10.0 mi NNW 3.5 mph - N/A   Scattered Clouds
7:55 PM 86.2 °F 89.7 °F 68.2 °F 55% 29.94 in 10.0 mi NW 3.5 mph - N/A   Scattered Clouds
8:15 PM 84.2 °F 87.3 °F 68.2 °F 58% 29.94 in 10.0 mi Calm Calm - N/A   Clear
8:35 PM 82.0 °F 85.1 °F 68.4 °F 63% 29.95 in 10.0 mi Calm Calm - N/A   Clear
8:55 PM 80.4 °F 83.4 °F 69.1 °F 68% 29.95 in 10.0 mi Calm Calm - N/A   Clear
9:15 PM 80.6 °F 83.2 °F 68.0 °F 65% 29.95 in 10.0 mi Calm Calm - N/A   Clear
9:35 PM 78.3 °F - 68.0 °F 71% 29.96 in 10.0 mi Calm Calm - N/A   Clear
9:55 PM 77.0 °F - 68.0 °F 74% 29.96 in 10.0 mi Calm Calm - N/A   Clear
10:15 PM 76.3 °F - 68.7 °F 77% 29.96 in 10.0 mi Calm Calm - N/A   Clear
10:35 PM 76.3 °F - 68.0 °F 75% 29.97 in 10.0 mi Calm Calm - N/A   Clear
10:55 PM 76.5 °F - 68.5 °F 76% 29.97 in 10.0 mi Calm Calm - N/A   Clear
11:15 PM 75.2 °F - 68.4 °F 79% 29.97 in 10.0 mi Calm Calm - N/A   Clear
11:35 PM 75.0 °F - 69.3 °F 82% 29.97 in 10.0 mi Calm Calm - N/A   Clear
11:55 PM 74.7 °F - 70.0 °F 85% 29.97 in 10.0 mi Calm Calm - N/A   Clear